Kremmling, CO

8:56 AM MST on December 06, 2019 (GMT -0700)
Kremmling

Weather History for K20V - November, 2019

Change the Weather History Date:

Saturday, November 16, 2019

  Actual Average Record
Temperature  
Mean Temperature 32 °F -  
Max Temperature 46 °F - 70 °F (2016)
Min Temperature 17 °F - -7 °F (2014)
Degree Days  
Heating Degree Days 34    
Month to date heating degree days 542  
Cooling Degree Days 0    
Month to date cooling degree days 0  
Moisture  
Dew Point 24 °F    
Average Humidity 79    
Maximum Humidity 93    
Minimum Humidity 38    
Precipitation  
Precipitation 0.00 in - 0.07 in (2015)
Snow  
Snow 0.00 in - - ()
Snow Depth 0.00 in    
Sea Level Pressure  
Sea Level Pressure 30.23 in    
Wind  
Wind Speed 2 mph ()    
Max Wind Speed 16 mph    
Max Gust Speed 21 mph    
Visibility 10.0 miles    
Events      
T = Trace of Precipitation, MM = Missing Value Source: Averaged Metar Reports

Daily Weather History Graph

Daily Weather History Graph

Search for Another Location

Airport or City:

Astronomy

Nov. 16, 2019 Rise Set
Actual Time 6:51 AM MST 4:48 PM MST
Civil Twilight 6:22 AM MST 5:17 PM MST
Nautical Twilight 5:49 AM MST 5:50 PM MST
Astronomical Twilight 5:17 AM MST 6:22 PM MST
Moon 8:23 PM MST (11/16) 10:48 AM MST (11/16)
Length of Visible Light 10h 54m
Length of Day
9h 56m
Waning Gibbous, 82% of the Moon is Illuminated
Nov 16
Waning Gibbous
Nov 19
Last Quarter
Nov 26
New
Dec 3
First Quarter
Dec 11
Full

Hourly Weather History & Observations

Time (MST) Temp. Windchill Dew Point Humidity Pressure Visibility Wind Dir Wind Speed Gust Speed Precip Events Conditions
12:12 AM 23.0 °F - 19.4 °F 86% 30.24 in 7.0 mi Calm Calm - N/A   Clear
12:30 AM 21.2 °F - 17.6 °F 86% 30.24 in 10.0 mi Calm Calm - N/A   Clear
12:48 AM 21.2 °F - 19.4 °F 93% 30.24 in 10.0 mi Calm Calm - N/A   Clear
1:12 AM 23.0 °F - 19.4 °F 86% 30.24 in 10.0 mi Calm Calm - N/A   Clear
1:30 AM 21.2 °F - 19.4 °F 93% 30.24 in 10.0 mi Calm Calm - N/A   Clear
2:12 AM 21.2 °F - 19.4 °F 93% 30.24 in 10.0 mi Calm Calm - N/A   Clear
2:29 AM 21.2 °F - 19.4 °F 93% 30.24 in 10.0 mi Calm Calm - N/A   Clear
2:53 AM 21.2 °F - 19.4 °F 93% 30.24 in 10.0 mi Calm Calm - N/A   Clear
3:12 AM 21.2 °F - 19.4 °F 93% 30.24 in 10.0 mi Calm Calm - N/A   Clear
3:30 AM 21.2 °F - 19.4 °F 93% 30.23 in 10.0 mi Calm Calm - N/A   Clear
3:48 AM 19.4 °F - 17.6 °F 93% 30.23 in 10.0 mi Calm Calm - N/A   Clear
4:12 AM 19.4 °F - 17.6 °F 93% 30.23 in 10.0 mi Calm Calm - N/A   Clear
4:30 AM 19.4 °F - 17.6 °F 93% 30.23 in 10.0 mi Calm Calm - N/A   Clear
4:48 AM 17.6 °F - 15.8 °F 93% 30.23 in 10.0 mi Calm Calm - N/A   Clear
5:11 AM 19.4 °F - 17.6 °F 93% 30.22 in 10.0 mi Calm Calm - N/A   Scattered Clouds
5:29 AM 19.4 °F - 17.6 °F 93% 30.22 in 10.0 mi Calm Calm - N/A   Scattered Clouds
5:47 AM 19.4 °F 14.3 °F 17.6 °F 93% 30.22 in 10.0 mi North 3.5 mph - N/A   Scattered Clouds
6:12 AM 17.6 °F - 15.8 °F 93% 30.22 in 10.0 mi Calm Calm - N/A   Clear
6:48 AM 17.6 °F - 15.8 °F 93% 30.24 in 10.0 mi Calm Calm - N/A   Scattered Clouds
7:12 AM 17.6 °F - 15.8 °F 93% 30.24 in 10.0 mi Calm Calm - N/A   Scattered Clouds
7:30 AM 17.6 °F 12.3 °F 15.8 °F 93% 30.25 in 10.0 mi NNE 3.5 mph - N/A   Scattered Clouds
7:48 AM 21.2 °F - 19.4 °F 93% 30.26 in 10.0 mi Calm Calm - N/A   Clear
8:12 AM 23.0 °F 18.4 °F 21.2 °F 93% 30.26 in 10.0 mi SSW 3.5 mph - N/A   Scattered Clouds
8:30 AM 26.6 °F - 23.0 °F 86% 30.26 in 10.0 mi Calm Calm - N/A   Scattered Clouds
8:48 AM 28.4 °F - 24.8 °F 86% 30.26 in 10.0 mi Calm Calm - N/A   Scattered Clouds
9:12 AM 30.2 °F - 23.0 °F 75% 30.26 in 10.0 mi Calm Calm - N/A   Mostly Cloudy
9:30 AM 30.2 °F - 23.0 °F 75% 30.25 in 10.0 mi Calm Calm - N/A   Mostly Cloudy
9:48 AM 32.0 °F - 23.0 °F 69% 30.24 in 10.0 mi Calm Calm - N/A   Scattered Clouds
10:12 AM 33.8 °F 30.8 °F 23.0 °F 65% 30.24 in 10.0 mi SW 3.5 mph - N/A   Scattered Clouds
10:30 AM 33.8 °F - 23.0 °F 65% 30.24 in 10.0 mi Calm Calm - N/A   Mostly Cloudy
10:48 AM 35.6 °F 31.7 °F 23.0 °F 60% 30.22 in 10.0 mi WSW 4.6 mph - N/A   Scattered Clouds
11:12 AM 39.2 °F 37.0 °F 24.8 °F 56% 30.21 in 10.0 mi NE 3.5 mph - N/A   Scattered Clouds
11:30 AM 42.8 °F - 23.0 °F 46% 30.20 in 10.0 mi Calm Calm - N/A   Mostly Cloudy
11:53 AM 46.4 °F - 23.0 °F 40% 30.18 in 10.0 mi Calm Calm - N/A   Mostly Cloudy
12:12 PM 44.6 °F 43.1 °F 24.8 °F 46% 30.16 in 10.0 mi South 3.5 mph - N/A   Mostly Cloudy
12:30 PM 44.6 °F - 23.0 °F 43% 30.16 in 10.0 mi Calm Calm - N/A   Overcast
12:48 PM 42.8 °F - 23.0 °F 46% 30.14 in 10.0 mi Calm Calm - N/A   Overcast
1:12 PM 42.8 °F - 24.8 °F 49% 30.14 in 10.0 mi Calm Calm - N/A   Overcast
1:30 PM 44.6 °F 42.2 °F 23.0 °F 43% 30.14 in 10.0 mi NNW 4.6 mph - N/A   Mostly Cloudy
2:12 PM 46.4 °F 40.4 °F 23.0 °F 40% 30.14 in 10.0 mi NW 13.8 mph 19.6 mph N/A   Overcast
2:48 PM 44.6 °F 37.4 °F 24.8 °F 46% 30.16 in 10.0 mi NW 16.1 mph 20.7 mph N/A   Mostly Cloudy
3:12 PM 42.8 °F 36.6 °F 24.8 °F 49% 30.16 in 10.0 mi NW 11.5 mph 18.4 mph N/A   Overcast
3:30 PM 41.0 °F 34.3 °F 26.6 °F 57% 30.18 in 10.0 mi NW 11.5 mph 20.7 mph N/A   Overcast
3:48 PM 39.2 °F 31.2 °F 28.4 °F 65% 30.19 in 10.0 mi NW 13.8 mph 19.6 mph N/A   Overcast
4:12 PM 37.4 °F 31.4 °F 28.4 °F 70% 30.20 in 10.0 mi WNW 8.1 mph 16.1 mph N/A   Overcast
4:30 PM 37.4 °F 32.8 °F 30.2 °F 75% 30.21 in 10.0 mi NNW 5.8 mph 17.3 mph N/A   Overcast
4:48 PM 37.4 °F - 30.2 °F 75% 30.22 in 10.0 mi Calm Calm - N/A   Overcast
5:12 PM 37.4 °F 33.8 °F 30.2 °F 75% 30.24 in 10.0 mi ENE 4.6 mph - N/A   Overcast
5:30 PM 35.6 °F 29.9 °F 30.2 °F 81% 30.24 in 10.0 mi North 6.9 mph - N/A   Overcast
5:48 PM 35.6 °F 28.6 °F 30.2 °F 81% 30.26 in 10.0 mi NNW 9.2 mph - N/A   Overcast
6:12 PM 35.6 °F 30.7 °F 30.2 °F 81% 30.26 in 10.0 mi NNW 5.8 mph - N/A   Overcast
6:30 PM 33.8 °F - 30.2 °F 87% 30.26 in 10.0 mi Calm Calm - N/A   Mostly Cloudy
6:48 PM 33.8 °F 30.8 °F 30.2 °F 87% 30.26 in 10.0 mi South 3.5 mph - N/A   Mostly Cloudy
7:12 PM 33.8 °F - 32.0 °F 93% 30.26 in 10.0 mi Calm Calm - N/A   Overcast
7:30 PM 33.8 °F 29.6 °F 32.0 °F 93% 30.27 in 10.0 mi NNW 4.6 mph - N/A   Overcast
7:52 PM 32.0 °F - 28.4 °F 87% 30.28 in 10.0 mi Calm Calm - N/A   Overcast
8:12 PM 33.8 °F - 30.2 °F 87% 30.28 in 10.0 mi Calm Calm - N/A   Overcast
8:30 PM 32.0 °F 28.7 °F 28.4 °F 87% 30.29 in 10.0 mi NE 3.5 mph - N/A   Mostly Cloudy
8:48 PM 32.0 °F - 28.4 °F 87% 30.29 in 10.0 mi Calm Calm - N/A   Mostly Cloudy
9:12 PM 30.2 °F - 26.6 °F 86% 30.29 in 10.0 mi Calm Calm - N/A   Mostly Cloudy
9:30 PM 30.2 °F - 26.6 °F 86% 30.31 in 10.0 mi Calm Calm - N/A   Mostly Cloudy
9:48 PM 30.2 °F 25.4 °F 28.4 °F 93% 30.31 in 10.0 mi SSE 4.6 mph - N/A   Overcast
10:12 PM 30.2 °F 26.7 °F 28.4 °F 93% 30.30 in 10.0 mi ENE 3.5 mph - N/A   Overcast
10:30 PM 32.0 °F - 28.4 °F 87% 30.30 in 10.0 mi Calm Calm - N/A   Overcast
10:48 PM 30.2 °F - 26.6 °F 86% 30.31 in 10.0 mi Calm Calm - N/A   Overcast
11:12 PM 32.0 °F 26.4 °F 28.4 °F 87% 30.30 in 10.0 mi NW 5.8 mph - N/A   Overcast